CZ-4C DEB, 43280

Orbit data source: Space-Track

CZ-4C DEB, 43280 is space debris in LEO originally from a launch on Tue, 10 Apr 2018 UTC launched from the Jiuquan Satellite Launch Center, China (JSC). Debris objects in space refer to the collection of defunct objects orbiting the Earth. Examples of debris include non-operational satellites, rocket bodies, and fragments generated from explosions, collisions, or faulty payload assembly.

Loading next visibility...
Identifier
43280, 2018-034F
Orbit
LEO
Last TLE update
10 hours ago
Origin
Manufacturer
Unknown
Mission
Spacecraft
Bus & Motor
Unknown
Mass
Unknown
Launch date (UTC)
2018-04-10 (7 years ago)
Launch vehicle
Unknown
Launch site
Jiuquan Satellite Launch Center, China (JSC)
Object type
Payload
Rocket body
Debris
Shape & HBR
Unknown
Radar Cross Section
Large (>1 m²)

Expand to show TLE details & history

TLE from 10 hours ago
0 CZ-4C DEB
1 43280U 18034F   25186.55685787 -.00000049  00000-0  59073-4 0  9998
2 43280  63.3999 278.7637 0239226   6.2191 354.1712 13.44314086355247
Epoch: 2025-07-05T13:21Z
TLE epoch observation values (Epoch: 2025-07-05T13:21:52.519Z)
Latitude
-0.00013°
Longitude
154.50161°
Altitude
917.236 km
Speed
7.481 km/s
True Right ascension
18h 35m 03s
True Declination
0° 00' 00"
Sunlit
Object was in full shadow at epoch
Visualization orbit readout
Latitude
-30.50453°
Longitude
-9.49614°
Altitude
1,260.202 km
Speed
7.149 km/s
Apparent Right ascension
04h 31m 53s
Apparent Declination
-55° 19' 38"
Sunlit
Object is in daylight
Visualization observer readout
Local Sidereal Time
11:17:51
Azimuth
224.971° SW
Elevation
-37.927°
Doppler factor
1
Orbital elements
Apogee altitude
1,270.788 km
Perigee altitude
913.374 km
Semi-major axis
7,470.218 km
Eccentricity
0.02392
Inclination
63.3999°
RAAN
278.7637°
Arg. of periapsis
6.2191°
True anomaly
Unknown
Mean anomaly
354.1712°
Eccentric anomaly
Unknown
Mean motion
3.36158 °/min
Orbital period
107.09 mins
BSTAR
0.000059073
Loading maneuver chart data...
Loading SW <> Apogee altitude chart data...
Loading historical data...
Loading historical data...
Loading historical data...
Loading historical data...
Loading historical data...
Loading historical data...
Loading historical data...

CZ-4C DEB Visibility forecast

Observer location: undefined°, undefined°

Span
Click to sort rows by Start time (UTC) header in descending order
Start Az.
Max El. time (UTC)
Max El. Az.
Max El.
End time (UTC)
End Az.
11 mins2025-07-06 07:19:30.956Z185° SSW2025-07-06 07:24:30.956Z126.034° SE34.816°2025-07-06 07:30:30.956Z46.626° ENE
9 mins2025-07-06 09:11:30.956Z259.657° W2025-07-06 09:15:30.956Z314.264° NW29.611°2025-07-06 09:20:30.956Z16.075° NNE
9 mins2025-07-06 14:52:30.956Z356.698° N2025-07-06 14:56:30.956Z40.043° NE23.112°2025-07-06 15:01:30.956Z86.74° E
13 mins2025-07-06 16:42:30.956Z325.293° NNW2025-07-06 16:47:30.956Z308.013° NW44.744°2025-07-06 16:55:30.956Z149.594° SSE
7 mins2025-07-06 18:34:30.956Z282.093° WNW2025-07-06 18:37:30.956Z255.715° W16.71°2025-07-06 18:41:30.956Z221.658° SW
|